[[{"header":{"parameterUnit":"m.s-1","parameterCategory":1,"la1":30.2991,"la2":30.254,"lo1":-89.0895,"lo2":-89.0444,"dy":0.0017,"dx":0.0017,"nx":28,"ny":28,"refTime":"2024-04-16T03:00:00:Z","depth":0,"parameterNumber":2,"parameterNumberName":"U-component_of_WINDS"},"data":[0,0,0,0,0,0,0,0,0,0,0,0,0,0,0,0,0,0,0,0,0,0,0,0,0,0,0,0,0,0,0,0,0,0,0,0,0,0,0,0,0,0,0,0,0,0,0,0,0,0,0,0,0,0,0,0,0,0,-2.5388,-2.5388,0,-2.537,-2.537,-2.537,-2.5333,-2.5332,-2.5331,-2.533,-2.5312,-2.5312,-2.5312,0,0,0,0,0,0,0,0,0,0,0,0,0,-2.5391,-2.5391,-2.5388,-2.5388,-2.5388,-2.537,-2.537,-2.537,-2.5333,-2.5332,-2.5331,-2.533,-2.5312,-2.5312,-2.5312,0,0,0,0,0,0,0,0,0,0,0,0,0,-2.5383,-2.5391,-2.5388,-2.5367,-2.5365,-2.537,-2.537,-2.537,-2.5333,-2.5332,-2.5331,-2.533,-2.5312,-2.5312,-2.5312,-2.5337,0,0,-2.5313,-2.5313,0,0,0,0,0,0,0,0,-2.5384,-2.5383,-2.537,-2.5369,-2.5366,-2.5353,-2.5364,-2.5359,-2.5333,-2.5345,-2.533,-2.5329,-2.5326,-2.5325,-2.5324,-2.5336,-2.5335,-2.5313,-2.5313,-2.5314,-2.5314,0,0,0,0,0,0,0,-2.5384,-2.5384,-2.5381,-2.537,-2.5368,-2.5359,-2.5356,-2.5363,-2.5342,-2.5344,-2.5341,-2.534,-2.5325,-2.5324,-2.5324,-2.5335,-2.5313,-2.5313,-2.5314,-2.5314,-2.5366,-2.5367,0,0,0,0,0,0,-2.5388,-2.5384,-2.5382,-2.5381,-2.5372,-2.536,-2.5357,-2.5358,-2.5342,-2.5338,-2.5341,-2.5338,-2.5324,-2.5323,-2.5323,-2.535,-2.5314,-2.5314,-2.5314,-2.5364,-2.5366,-2.5367,0,0,0,0,0,0,-2.5388,-2.5388,-2.5382,-2.5382,-2.538,-2.5361,-2.5362,-2.5358,-2.5358,-2.5339,-2.5336,-2.5344,-2.5323,-2.5322,-2.5334,-2.5349,-2.5314,-2.5314,-2.5363,-2.5365,-2.5367,-2.5405,0,0,0,0,0,0,-2.5388,-2.5388,-2.5397,-2.5382,-2.538,-2.5393,-2.5363,-2.5359,-2.5358,-2.5355,-2.5341,-2.5338,-2.5322,-2.5333,-2.5334,-2.5349,-2.5314,-2.5362,-2.5364,-2.5366,-2.5403,-2.5408,-2.5413,0,0,0,0,0,-2.5388,-2.5408,-2.5397,-2.5397,-2.5391,-2.5394,-2.5393,-2.5375,-2.536,-2.5368,-2.5357,-2.5338,-2.5348,-2.5335,-2.5335,-2.535,-2.536,-2.5363,-2.5366,-2.54,-2.5407,-2.5413,0,0,0,0,0,0,-2.5425,-2.5406,-2.5394,-2.541,-2.5404,-2.5388,-2.5398,-2.5383,-2.5381,-2.5378,-2.5355,-2.5353,-2.5367,-2.536,-2.5346,-2.5374,-2.5351,-2.5354,-2.5377,-2.5384,-2.5389,-2.539,-2.5315,0,0,0,0,0,-2.5435,-2.5439,-2.5422,-2.5438,-2.5436,-2.5418,-2.5419,-2.5405,-2.5398,-2.5395,-2.5385,-2.5379,-2.538,-2.5382,-2.5382,-2.5402,-2.5399,-2.5413,-2.5418,-2.5423,-2.5425,-2.5435,-2.5441,-2.5376,-2.5376,-2.5376,0,0,-2.5455,-2.5446,-2.545,-2.5445,-2.5439,-2.5444,-2.5416,-2.5422,-2.5426,-2.5396,-2.5406,-2.5399,-2.539,-2.5406,-2.5412,-2.5401,-2.5443,-2.5426,-2.543,-2.543,-2.5439,-2.5445,-2.545,-2.5378,-2.5378,-2.5377,0,0,-2.5495,-2.5488,-2.5501,-2.5495,-2.5487,-2.5475,-2.5478,-2.5465,-2.5459,-2.5468,-2.5447,-2.5451,-2.5454,-2.5449,-2.5447,-2.5487,-2.547,-2.5488,-2.5515,-2.5525,-2.553,-2.5535,-2.5549,-2.5554,-2.5491,-2.5491,-2.5491,0,-2.5522,-2.5528,-2.5509,-2.5517,-2.5516,-2.549,-2.5503,-2.5499,-2.5491,-2.5491,-2.5478,-2.5482,-2.5475,-2.5489,-2.5499,-2.5498,-2.5501,-2.5489,-2.5531,-2.5536,-2.5539,-2.5552,-2.5558,-2.5493,-2.5493,-2.5493,-2.5492,0,-2.5561,-2.5566,-2.5577,-2.557,-2.5571,-2.5581,-2.5564,-2.5566,-2.5553,-2.5543,-2.5554,-2.5544,-2.5543,-2.5545,-2.5533,-2.5558,-2.5551,-2.5535,-2.5512,-2.5548,-2.556,-2.5565,-2.5496,-2.5495,-2.5495,-2.5494,0,0,-2.5622,-2.5605,-2.561,-2.5607,-2.5596,-2.56,-2.5609,-2.5608,-2.5611,-2.5607,-2.5614,-2.5618,-2.5603,-2.5601,-2.5588,-2.5597,-2.5629,-2.558,-2.558,-2.5589,-2.5657,-2.5669,-2.5675,-2.5619,-2.5619,-2.562,-2.5658,0,-2.5659,-2.5674,-2.5657,-2.5676,-2.568,-2.5657,-2.5665,-2.566,-2.5651,-2.5653,-2.5644,-2.5647,-2.5627,-2.5626,-2.5634,-2.5624,-2.5643,-2.5621,-2.5625,-2.5625,-2.5627,-2.5681,-2.5693,-2.5729,-2.5662,-2.5663,-2.5664,0,-2.5703,-2.5702,-2.572,-2.5709,-2.5711,-2.5718,-2.5716,-2.5719,-2.5713,-2.5706,-2.5704,-2.5689,-2.5697,-2.5676,-2.5688,-2.5674,-2.5675,-2.567,-2.5671,-2.567,-2.5646,-2.5681,-2.574,-2.5745,-2.5671,-2.567,-2.567,0,-2.5745,-2.5748,-2.576,-2.5758,-2.5745,-2.5751,-2.5746,-2.5739,-2.574,-2.5738,-2.5738,-2.5738,-2.5737,-2.5738,-2.5722,-2.5708,-2.5736,-2.5714,-2.5731,-2.5731,-2.5737,-2.5736,-2.5796,-2.5739,-2.5739,-2.5739,-2.5738,0,-2.5788,-2.58,-2.5779,-2.5786,-2.5799,-2.5781,-2.5795,-2.5787,-2.5781,-2.5787,-2.5767,-2.5773,-2.5753,-2.5756,-2.5745,-2.5756,-2.5757,-2.5751,-2.5748,-2.5752,-2.5753,-2.5752,-2.5749,-2.574,-2.574,-2.5739,-2.5739,0,-2.5837,-2.5823,-2.5834,-2.5822,-2.5819,-2.5829,-2.5819,-2.5825,-2.5815,-2.5822,-2.5823,-2.5808,-2.5811,-2.5797,-2.5797,-2.579,-2.5807,-2.58,-2.5809,-2.5807,-2.5824,-2.5823,-2.5885,-2.5892,-2.5831,-2.5831,-2.5832,0,-2.5864,-2.5873,-2.5862,-2.5864,-2.5861,-2.5865,-2.5865,-2.5848,-2.5849,-2.5844,-2.5851,-2.5853,-2.5853,-2.586,-2.5849,-2.585,-2.5842,-2.5864,-2.5842,-2.5846,-2.5842,-2.5841,-2.5842,-2.5868,-2.5869,-2.5869,-2.587,0,-2.5915,-2.5908,-2.5909,-2.5909,-2.591,-2.5909,-2.5906,-2.5909,-2.5891,-2.5894,-2.5897,-2.5897,-2.5899,-2.5901,-2.59,-2.5895,-2.5879,-2.5877,-2.5881,-2.5885,-2.589,-2.5887,-2.5821,-2.5875,-2.5875,-2.5874,-2.5874,-2.5874,-2.5954,-2.5961,-2.5954,-2.5957,-2.5953,-2.5951,-2.5957,-2.5948,-2.595,-2.595,-2.594,-2.5945,-2.594,-2.5936,-2.5933,-2.5937,-2.5927,-2.5933,-2.5934,-2.5936,-2.5939,-2.589,-2.5937,-2.5937,-2.5937,-2.5937,-2.5937,0,-2.6003,-2.5997,-2.6,-2.5997,-2.6,-2.5985,-2.5982,-2.5985,-2.599,-2.5986,-2.5987,-2.5991,-2.5994,-2.5984,-2.5984,-2.599,-2.5983,-2.5991,-2.599,-2.5989,-2.5948,-2.5944,-2.5996,-2.5996,-2.5996,-2.5996,-2.5996,-2.5996,-2.6028,-2.604,-2.6032,-2.6042,-2.6036,-2.6041,-2.6041,-2.6039,-2.6036,-2.6042,-2.6044,-2.6037,-2.6031,-2.6031,-2.6033,-2.603,-2.6031,-2.6041,-2.6036,-2.5997,-2.5992,-2.5986,-2.5982,-2.6042,-2.6042,-2.6076,-2.6076,-2.6077]},{"header":{"parameterUnit":"m.s-1","parameterCategory":1,"la1":30.2991,"la2":30.254,"lo1":-89.0895,"lo2":-89.0444,"dy":0.0017,"dx":0.0017,"nx":28,"ny":28,"refTime":"2024-04-16T03:00:00:Z","depth":0,"parameterNumber":3,"parameterNumberName":"V-component_of_WINDS"},"data":[0,0,0,0,0,0,0,0,0,0,0,0,0,0,0,0,0,0,0,0,0,0,0,0,0,0,0,0,0,0,0,0,0,0,0,0,0,0,0,0,0,0,0,0,0,0,0,0,0,0,0,0,0,0,0,0,0,0,3.8143,3.8143,0,3.812,3.8119,3.8119,3.8087,3.8086,3.8086,3.8085,3.8059,3.8058,3.8058,0,0,0,0,0,0,0,0,0,0,0,0,0,3.8159,3.8159,3.8143,3.8143,3.8143,3.812,3.8119,3.8119,3.8087,3.8086,3.8086,3.8085,3.8059,3.8058,3.8058,0,0,0,0,0,0,0,0,0,0,0,0,0,3.8145,3.8159,3.8143,3.8124,3.8122,3.812,3.8119,3.8119,3.8087,3.8086,3.8086,3.8085,3.8059,3.8058,3.8058,3.8072,0,0,3.8057,3.8057,0,0,0,0,0,0,0,0,3.8146,3.8145,3.8127,3.8125,3.8123,3.8106,3.8115,3.8103,3.8087,3.81,3.8085,3.8084,3.8075,3.8073,3.807,3.8071,3.807,3.8057,3.8057,3.8057,3.8057,0,0,0,0,0,0,0,3.8147,3.8146,3.8134,3.8127,3.8124,3.8116,3.8113,3.8113,3.8092,3.8099,3.8097,3.8095,3.8073,3.8071,3.8069,3.8069,3.8057,3.8057,3.8057,3.8056,3.8082,3.8083,0,0,0,0,0,0,3.8151,3.8147,3.8135,3.8133,3.8133,3.8116,3.8113,3.8112,3.8092,3.8088,3.8095,3.8093,3.8072,3.807,3.8068,3.8085,3.8057,3.8056,3.8056,3.8081,3.8083,3.8083,0,0,0,0,0,0,3.8152,3.8151,3.8136,3.8139,3.8137,3.8117,3.8116,3.8112,3.8109,3.8089,3.8085,3.8096,3.8071,3.8069,3.8072,3.8083,3.8056,3.8056,3.808,3.8082,3.8083,3.8117,0,0,0,0,0,0,3.8152,3.8151,3.8156,3.814,3.8137,3.814,3.8116,3.8112,3.8109,3.8106,3.8089,3.8086,3.807,3.8073,3.8072,3.8082,3.8056,3.8079,3.8081,3.8083,3.8115,3.8119,3.8123,0,0,0,0,0,3.8153,3.8166,3.8157,3.8155,3.8143,3.8141,3.8139,3.8122,3.811,3.8115,3.8103,3.8086,3.8082,3.8073,3.8072,3.8083,3.8078,3.8081,3.8082,3.8113,3.8118,3.8123,0,0,0,0,0,0,3.8183,3.8163,3.8153,3.8161,3.8153,3.8135,3.8141,3.8128,3.8122,3.812,3.8098,3.8094,3.8101,3.8092,3.8082,3.8096,3.8078,3.808,3.8102,3.8107,3.8111,3.8113,3.8055,0,0,0,0,0,3.819,3.8191,3.8173,3.8182,3.8179,3.8161,3.8159,3.8147,3.8137,3.8134,3.8121,3.8112,3.8109,3.8107,3.8103,3.8114,3.811,3.812,3.8125,3.8128,3.813,3.8136,3.8141,3.809,3.809,3.809,0,0,3.8206,3.8195,3.8196,3.8188,3.818,3.8181,3.8158,3.8159,3.816,3.8133,3.8136,3.8127,3.8116,3.8123,3.8126,3.8116,3.8143,3.8131,3.8134,3.8133,3.8139,3.8144,3.8148,3.8091,3.8091,3.8091,0,0,3.8234,3.8226,3.8233,3.8227,3.8216,3.8205,3.8206,3.8191,3.8185,3.8188,3.8169,3.8168,3.8163,3.8156,3.8152,3.8181,3.8166,3.818,3.8202,3.8208,3.8212,3.8216,3.8227,3.8231,3.8182,3.8182,3.8182,0,3.8254,3.8255,3.8238,3.8242,3.8239,3.8216,3.8224,3.8218,3.8206,3.8205,3.8194,3.8189,3.8179,3.8185,3.8193,3.819,3.8192,3.8182,3.8213,3.8217,3.822,3.823,3.8234,3.8184,3.8184,3.8183,3.8183,0,3.8281,3.8283,3.8289,3.8281,3.8278,3.8283,3.8267,3.8267,3.8255,3.8245,3.8249,3.8237,3.8231,3.8232,3.8219,3.8237,3.8231,3.8217,3.8199,3.8227,3.8236,3.824,3.8186,3.8186,3.8185,3.8185,0,0,3.8327,3.831,3.8313,3.8309,3.8297,3.8297,3.8302,3.8297,3.8298,3.8291,3.8295,3.8292,3.828,3.8275,3.8262,3.8268,3.8293,3.8254,3.8253,3.8262,3.8313,3.8324,3.8329,3.8283,3.8284,3.8284,3.8314,0,3.8353,3.8361,3.8347,3.8357,3.8359,3.8339,3.8343,3.8336,3.8327,3.8326,3.8316,3.8315,3.8298,3.8296,3.83,3.8289,3.8303,3.8287,3.8286,3.8287,3.8291,3.8333,3.8344,3.8373,3.8318,3.8318,3.8319,0,3.8385,3.8382,3.8394,3.8383,3.8383,3.8387,3.8382,3.8382,3.8374,3.8367,3.8363,3.8349,3.8353,3.8335,3.8341,3.833,3.8329,3.8324,3.8324,3.8324,3.8305,3.8335,3.8381,3.8386,3.8324,3.8324,3.8323,0,3.8419,3.8417,3.8424,3.8421,3.8408,3.8412,3.8406,3.8398,3.8397,3.8393,3.8392,3.8388,3.8386,3.8383,3.8368,3.8357,3.8376,3.8357,3.8371,3.8371,3.8375,3.8375,3.8424,3.8374,3.8374,3.8374,3.8374,0,3.845,3.8458,3.8439,3.8444,3.8452,3.8436,3.8445,3.8437,3.843,3.8433,3.8415,3.8418,3.8397,3.8398,3.8386,3.8394,3.8392,3.8387,3.8384,3.8389,3.839,3.8388,3.8386,3.8375,3.8375,3.8375,3.8374,0,3.8489,3.8476,3.8483,3.8471,3.8468,3.8475,3.8464,3.8468,3.8459,3.8462,3.8462,3.8447,3.8447,3.8432,3.8429,3.8421,3.8433,3.8426,3.8436,3.8434,3.845,3.8449,3.8499,3.8505,3.8451,3.8452,3.8452,0,3.851,3.8516,3.8505,3.8506,3.8502,3.8504,3.8503,3.8487,3.8487,3.848,3.8485,3.8484,3.8482,3.8484,3.8472,3.847,3.8463,3.8481,3.8462,3.8468,3.8464,3.8464,3.8465,3.8484,3.8485,3.8486,3.8486,0,3.8549,3.8543,3.8543,3.8542,3.8542,3.854,3.8536,3.8538,3.8521,3.8522,3.8523,3.8522,3.8519,3.8519,3.8515,3.8509,3.8495,3.8492,3.8495,3.8501,3.8507,3.8505,3.8448,3.8491,3.849,3.849,3.849,3.849,3.858,3.8585,3.8579,3.858,3.8577,3.8574,3.8578,3.857,3.857,3.8568,3.8558,3.8561,3.8554,3.8548,3.8543,3.8545,3.8536,3.8541,3.8542,3.8544,3.8547,3.8507,3.8544,3.8544,3.8544,3.8544,3.8544,0,3.862,3.8615,3.8617,3.8613,3.8614,3.8602,3.8598,3.86,3.8603,3.8598,3.8598,3.86,3.86,3.8589,3.8588,3.8591,3.8585,3.8592,3.8591,3.859,3.8554,3.8552,3.8597,3.8597,3.8597,3.8597,3.8597,3.8597,3.864,3.8649,3.8643,3.865,3.8645,3.8648,3.8647,3.8645,3.8642,3.8645,3.8645,3.8639,3.8632,3.863,3.863,3.8627,3.8627,3.8636,3.8631,3.8598,3.8593,3.8588,3.8586,3.8637,3.8637,3.8667,3.8667,3.8668]}]]